Regional Weather Roundup
Issued by NWS

Home | Current Version | Previous Version | Graphics & Text | Print | Product List | Glossary On
Versions: 1 2 3 4 5 6 7 8 9 10 11 12 13 14 15 16 17 18 19 20 21 22 23 24 25 26 27 28 29 30 31 32 33 34 35 36 37 38 39 40 41 42 43 44 45 46 47 48 49 50
000
ASUS43 KDMX 310207
RWRIA

WEATHER ROUNDUP FOR IOWA
NATIONAL WEATHER SERVICE DES MOINES IA
900 PM CDT WED JUL 30 2014

NOTE: "FAIR" INDICATES FEW OR NO CLOUDS BELOW 12,000 FEET WITH NO
SIGNIFICANT WEATHER AND/OR OBSTRUCTIONS TO VISIBILITY.

* - THESE STATIONS ARE NOT NWS STATIONS...THUS NOT UNDER NWS
QUALITY CONTROL.  THEY ALSO DO NOT REPORT WEATHER SUCH
AS PRECIPITATION OR FOG.

IAZ001>003-012>014-020>022-031>034-043>046-310300-
   NORTHWEST IOWA

CITY           SKY/WX    TMP DP  RH WIND       PRES   REMARKS
CARROLL *      CLEAR     64  61  88 CALM      30.10S
CHEROKEE *     CLEAR     67  61  82 CALM      30.10S
DENISON *      CLEAR     66  63  88 CALM      30.09S
LE MARS *      CLEAR     68  61  77 CALM      30.10S
ORANGE CITY *  CLEAR     72  57  60 CALM      30.11S
SHELDON *      CLEAR     64  61  88 SW3       30.09S
SIOUX CITY     PTCLDY    70  58  65 E3        30.10S
SPENCER        CLEAR     66  60  81 CALM      30.10S
STORM LAKE *   CLEAR     66  61  82 CALM      30.12R
$$

IAZ055>058-069>071-079>083-090>094-310300-
   SOUTHWEST IOWA

CITY           SKY/WX    TMP DP  RH WIND       PRES   REMARKS
ATLANTIC *     CLEAR     66  59  77 CALM      30.10R
AUDUBON *      CLEAR     64  61  88 CALM      30.12S
CLARINDA *     PTCLDY    66  61  82 N5        30.11R
COUNCIL BLFS *   N/A     70  55  60 E5        30.10R
CRESTON *      CLEAR     70  55  60 CALM      30.10S
HARLAN  *      CLEAR     66  61  82 CALM      30.14S
LAMONI         CLEAR     69  57  65 NW3       30.09R
RED OAK *      PTCLDY    64  59  82 N5        30.10S
SHENANDOAH *   PTCLDY    68  63  83 NE3       30.10S
$$

IAZ047>049-059>061-072>074-084-310300-
   CENTRAL IOWA

CITY           SKY/WX    TMP DP  RH WIND       PRES   REMARKS
AMES           CLEAR     66  61  84 W6        30.08S
ANKENY *       CLEAR     68  57  68 CALM      30.08S
CHARITON *     CLEAR     70  59  68 NW3       30.08S
DES MOINES     PTCLDY    74  55  51 NW3       30.08R
GRINNELL*      CLEAR     68  59  73 CALM      30.08S
KNOXVILLE *    CLEAR     72  57  60 CALM      30.06S
MARSHALLTOWN   CLEAR     68  61  78 W3        30.07R
PELLA *        CLEAR     69  60  74 CALM      30.08S
PERRY *          N/A     67  60  78 CALM      30.09S
$$

IAZ004>006-015-016-023>025-035-036-310300-
   NORTH CENTRAL IOWA

CITY           SKY/WX    TMP DP  RH WIND       PRES   REMARKS
ALGONA *       CLEAR     68  63  83 W5        30.09S
CLARION *      CLEAR     66  63  88 CALM      30.08S
ESTHERVILLE    CLEAR     65  59  81 CALM      30.09F
FORT DODGE *   CLEAR     64  61  88 CALM      30.09F
MASON CITY     CLEAR     66  60  81 W6        30.09S
FOREST CITY *    N/A     66  61  82 NE3       30.08R
IOWA FALLS *     N/A     66  61  82 W3        30.09S
$$

IAZ007>011-017>019-026>030-037>042-050>054-066-310300-
   NORTHEAST IOWA

CITY           SKY/WX    TMP DP  RH WIND       PRES   REMARKS
CEDAR RAPIDS   CLEAR     67  63  87 SW5       30.05R
CHARLES CITY * PTCLDY    68  63  83 W5        30.07S
CLINTON *      CLEAR     64  61  88 W6        30.07R
DECORAH *      CLEAR     68  61  77 CALM      30.04S
DUBUQUE        CLEAR     64  59  83 NW3       30.06R
MONTICELLO *   CLEAR     66  63  88 CALM      30.05R
OELWEIN *      MOCLDY    70  61  73 W5        30.07R
WATERLOO       CLEAR     71  60  68 W5        30.05R
$$

IAZ064-065-067-068-078-310300-
   EAST CENTRAL IOWA

CITY           SKY/WX    TMP DP  RH WIND       PRES   REMARKS
DAVENPORT      CLEAR     66  61  84 NW5       30.05R
IOWA CITY      CLEAR     69  62  78 W5        30.06R
MT. PLEASANT * CLEAR     69  61  75 CALM      30.06S
MUSCATINE *    CLEAR     70  61  73 W3        30.05R
QUAD CITIES    CLEAR     68  59  73 W3        30.04R
$$

IAZ062-063-075>077-085>089-095>099-310300-
   SOUTHEAST IOWA

CITY           SKY/WX    TMP DP  RH WIND       PRES   REMARKS
BURLINGTON     CLEAR     68  62  81 W5        30.05S
FAIRFIELD *    CLEAR     66  63  88 NW3       30.07S
FORT MADISON * CLEAR     70  64  83 CALM      30.07S
KEOKUK *       CLEAR     70  64  83 CALM      30.05S
OSKALOOSA *      N/A     68  63  83 W5        30.07S
CENTERVILLE *    N/A     63  63 100 CALM      30.10R
OTTUMWA        CLEAR     67  62  84 NW3       30.07S
WASHINGTON *   CLEAR     68  63  83 NW5       30.06S
$$

ABBREVIATIONS USED IN REMARKS
   TC - TEMPERATURES IN CELSIUS
  WCI - WIND CHILL INDEX
   HX - HEAT INDEX
  VSB - VISIBILITY
$$



USA.gov is the U.S. government's official web portal to all federal, state and local government web resources and services.